Location: Newark
(60.6561°N, 46.5772°E)
Time: 01:38:53
(UTC+00:00)

Tiros 1 despin weight - Pass Details

Date: 22 October 2019
Orbit: 594 x 642 km, 48.2° (Epoch: 12 November)

Event Time Altitude Azimuth Distance (km) Brightness Sun altitude
Rises 00:57:53 0° 252° (WSW) 2,945 - -21.6°
Reaches altitude 10° 01:01:00 10° 231° (SW) 2,037 - -21.3°
Maximum altitude 01:03:48 16° 194° (SSW) 1,681 - -20.9°
Exits shadow 01:04:30 15° 183° (S) 1,705 ? -20.9°
Drops below altitude 10° 01:06:36 10° 157° (SSE) 2,033 ? -20.6°
Sets 01:09:42 0° 136° (SE) 2,936 ? -20.2°
